Location: Diati
(11.8376°N, 2.5966°E)
Time: 17:53:25
(UTC+00:00)

Ariane H10 - Pass Details

Date: 21 September 2020
Orbit: 153 x 5967 km, 7.0° (Epoch: 19 October)

Event Time Altitude Azimuth Distance (km) Brightness Sun altitude
Rises 19:40:20 0° 269° (W) 8,043 8.9 -28.7°
Reaches altitude 10° 19:48:12 10° 264° (W) 5,693 7.8 -30.6°
Maximum altitude 20:00:54 39° 202° (SSW) 1,732 4.3 -33.7°
Enters shadow 20:01:17 38° 194° (SSW) 1,676 4.1 -33.8°
